Weather History for Renton, WA

Change the Weather History Date:

Monday, July 29, 2013

  Actual Average Record
Temperature  
Mean Temperature 66 °F -  
Max Temperature 75 °F 76 °F 93 °F (2003)
Min Temperature 57 °F 57 °F 55 °F (2006)
Cooling Degree Days 1    
Growing Degree Days 16 (Base 50)    
Moisture  
Dew Point 53 °F    
Average Humidity 66    
Maximum Humidity 83    
Minimum Humidity 46    
Precipitation  
Precipitation 0.00 in - - ()
Sea Level Pressure  
Sea Level Pressure 30.00 in    
Wind  
Wind Speed 2 mph (NNW)    
Max Wind Speed 6 mph    
Max Gust Speed -    
Visibility 9 miles    
Events      
Averages and records for this station are not official NWS values.
T = Trace of Precipitation, MM = Missing Value Source: NWS Daily Summary

Daily Weather History Graph

Daily Weather History Graph

Search for Another Location

Airport:

Trip Planner

Search our weather history database for the weather conditions in past years. The results will help you decide how hot, cold, wet, or windy it might be!

Date:

Astronomy

Jul. 29, 2013 Rise Set
Actual Time 5:43 AM PDT 8:46 PM PDT
Civil Twilight 5:06 AM PDT 9:22 PM PDT
Nautical Twilight 4:19 AM PDT 10:09 PM PDT
Astronomical Twilight 3:22 AM PDT 11:06 PM PDT
Moon No Moon Rise 2:08 PM PDT
Length of Visible Light 16h 15m
Length of Day
15h 03m
Waning Gibbous, 50% of the Moon is Illuminated
Jul 29
Waning Gibbous
Aug 6
New
Aug 14
First Quarter
Aug 20
Full
Aug 28
Last Quarter

Hourly Weather History & Observations

Time (PDT) Temp. Dew Point Humidity Pressure Visibility Wind Dir Wind Speed Gust Speed Precip Events Conditions
12:53 AM 59.0 °F 51.1 °F 75% 30.02 in 9.0 mi SSE 4.6 mph - N/A   Partly Cloudy
1:53 AM 57.9 °F 52.0 °F 81% 30.01 in 10.0 mi Calm Calm - N/A   Partly Cloudy
2:53 AM 57.0 °F 52.0 °F 83% 30.01 in 9.0 mi Calm Calm - N/A   Mostly Cloudy
3:53 AM 57.9 °F 52.0 °F 81% 30.01 in 10.0 mi Calm Calm - N/A   Overcast
4:53 AM 59.0 °F 51.1 °F 75% 30.01 in 9.0 mi Calm Calm - N/A   Overcast
5:40 AM 59.0 °F 51.8 °F 77% 29.99 in 10.0 mi Calm Calm - N/A   Overcast
5:53 AM 59.0 °F 51.1 °F 75% 30.01 in 10.0 mi Calm Calm - N/A   Overcast
6:53 AM 59.0 °F 52.0 °F 78% 30.02 in 8.0 mi Calm Calm - N/A   Overcast
7:53 AM 60.1 °F 51.1 °F 72% 30.03 in 7.0 mi Calm Calm - N/A   Overcast
8:53 AM 61.0 °F 52.0 °F 72% 30.03 in 8.0 mi Calm Calm - N/A   Overcast
9:53 AM 62.1 °F 52.0 °F 70% 30.02 in 8.0 mi Calm Calm - N/A   Overcast
10:53 AM 63.0 °F 52.0 °F 67% 30.02 in 6.0 mi WSW 3.5 mph - N/A   Haze
11:53 AM 64.0 °F 52.0 °F 65% 30.02 in 6.0 mi Variable 3.5 mph - N/A   Haze
12:53 PM 66.0 °F 53.1 °F 63% 30.01 in 10.0 mi North 3.5 mph - N/A   Overcast
1:30 PM 68.0 °F 51.8 °F 56% 30.00 in 8.0 mi Calm Calm - N/A   Scattered Clouds
1:53 PM 69.1 °F 53.1 °F 57% 30.01 in 10.0 mi NNW 5.8 mph - N/A   Clear
2:53 PM 71.1 °F 53.1 °F 53% 29.99 in 9.0 mi NNW 4.6 mph - N/A   Clear
3:53 PM 72.0 °F 53.1 °F 51% 29.99 in 10.0 mi NNW 4.6 mph - N/A   Clear
4:53 PM 73.9 °F 53.1 °F 48% 29.98 in 10.0 mi NNW 5.8 mph - N/A   Clear
5:53 PM 73.9 °F 53.1 °F 48% 29.97 in 10.0 mi Calm Calm - N/A   Clear
6:53 PM 75.0 °F 53.1 °F 46% 29.97 in 10.0 mi NNW 4.6 mph - N/A   Clear
7:53 PM 73.9 °F 53.1 °F 48% 29.97 in 10.0 mi Calm Calm - N/A   Clear
8:53 PM 70.0 °F 55.0 °F 59% 29.98 in 10.0 mi Calm Calm - N/A   Clear
9:53 PM 66.9 °F 55.9 °F 68% 30.00 in 10.0 mi Calm Calm - 0.00 in   Clear
10:53 PM 64.0 °F 55.0 °F 73% 30.01 in 10.0 mi East 3.5 mph - N/A   Clear
11:53 PM 62.1 °F 55.9 °F 80% 30.03 in 9.0 mi Calm Calm - N/A   Clear